Flag for U.S.A. Weather past 2 weeks in Petersburg, Indiana, U.S.A.

Now
54 °F

Clear.


Feels Like: 53 °F
Forecast: 56 / 78 °F
Wind: 3 mph from Southeast

Location: Huntingburg Airport

Current Time: May 23, 2015 at 4:53:06 AM

Latest Report: May 23, 2015 at 4:15 AM


Visibility: 10 mi

Pressure: 30.29 "Hg

Humidity: 82%

Dew point: 48 °F

Location of PetersburgLocation

Historic Weather in Petersburg — Graph

°F

Petersburg temperature yesterday

Maximum temperature yesterday: 72 °F (at 2:15 PM)
Minimum temperature yesterday: 43 °F (at 4:35 AM)
Average temperature yesterday: 59 °F

Past Weeks' High & Low Weather Summary

 TemperatureHumidityPressure
High86 °F (May 8, 4:55 PM)93% (May 13, 6:55 AM)30.41 "Hg (May 13, 6:55 AM)
Low43 °F (May 22, 4:35 AM)40% (May 8, 4:15 PM)29.94 "Hg (May 11, 11:35 AM)
Average65 °F71%30.13 "Hg
* Reported May 8 3:15 AM — May 23 3:55 AM, Petersburg, Weather by CustomWeather, © 2015

Note: Actual official high and low records may vary slightly from our data, if they occured in-between our weather recording intervals... More about our weather records

Advertising

Petersburg weather history for previous 24 hours

 ConditionsComfort  
Time TempWeatherWind HumidityBarometerVisibility
3:55 AM
Sat, May 23
55 °FClear.No wind82%30.29 "Hg10 mi
3:35 AM55 °FClear.No wind82%30.29 "Hg10 mi
3:15 AM55 °FClear.No wind77%30.28 "Hg10 mi
2:55 AM57 °FClear.3 mph77%30.28 "Hg10 mi
2:35 AM57 °FClear.3 mph77%30.28 "Hg10 mi
2:15 AM55 °FClear.5 mph82%30.28 "Hg10 mi
1:55 AM55 °FClear.5 mph77%30.29 "Hg10 mi
1:35 AM57 °FClear.No wind77%30.29 "Hg10 mi
1:15 AM55 °FClear.3 mph77%30.29 "Hg10 mi
12:55 AM57 °FClear.No wind77%30.29 "Hg10 mi
12:35 AM61 °FClear.No wind68%30.29 "Hg10 mi
12:15 AM61 °FClear.No wind68%30.29 "Hg10 mi
11:55 PM
Fri, May 22
63 °FClear.3 mph64%30.29 "Hg10 mi
11:35 PM63 °FClear.3 mph64%30.29 "Hg10 mi
11:15 PM63 °FClear.No wind64%30.29 "Hg10 mi
10:55 PM64 °FClear.3 mph60%30.29 "Hg10 mi
10:35 PM63 °FClear.3 mph64%30.28 "Hg10 mi
10:15 PM63 °FClear.5 mph64%30.28 "Hg10 mi
9:55 PM64 °FSunny.6 mph60%30.27 "Hg10 mi
9:35 PM64 °FSunny.5 mph60%30.26 "Hg10 mi
9:15 PM66 °FSunny.No wind56%30.25 "Hg10 mi
8:55 PM66 °FSunny.6 mph60%30.25 "Hg10 mi
8:35 PM68 °FSunny.5 mph56%30.25 "Hg10 mi
8:15 PM70 °FSunny.5 mph53%30.24 "Hg10 mi
7:55 PM70 °FSunny.5 mph53%30.24 "Hg10 mi
7:35 PM70 °FSunny.5 mph53%30.24 "Hg10 mi
7:15 PM70 °FSunny.3 mph57%30.24 "Hg10 mi
6:55 PM70 °FSunny.6 mph53%30.24 "Hg10 mi
6:35 PM72 °FSunny.6 mph50%30.24 "Hg10 mi
6:15 PM72 °FSunny.8 mph50%30.24 "Hg10 mi
5:55 PM72 °FSunny.9 mph50%30.24 "Hg10 mi
5:35 PM72 °FSunny.13 mph50%30.25 "Hg10 mi
5:15 PM72 °FSunny.10 mph50%30.25 "Hg6 mi
4:55 PM72 °FSunny.9 mph50%30.25 "Hg10 mi
4:35 PM72 °FSunny.9 mph50%30.25 "Hg10 mi
4:15 PM72 °FSunny.10 mph50%30.26 "Hg10 mi
3:55 PM72 °FSunny.9 mph50%30.25 "Hg10 mi
3:35 PM72 °FSunny.10 mph50%30.25 "Hg10 mi
3:15 PM72 °FSunny.10 mph50%30.25 "Hg10 mi
2:55 PM72 °FSunny.14 mph50%30.25 "Hg10 mi
2:35 PM72 °FSunny.10 mph47%30.25 "Hg10 mi
2:15 PM72 °FSunny.10 mph50%30.26 "Hg10 mi
1:55 PM70 °FSunny.13 mph50%30.27 "Hg10 mi
1:35 PM70 °FSunny.12 mph46%30.27 "Hg10 mi
1:15 PM70 °FSunny.13 mph50%30.26 "Hg10 mi
12:55 PM70 °FSunny.15 mph50%30.26 "Hg10 mi
12:35 PM68 °FSunny.10 mph56%30.27 "Hg10 mi
12:15 PM66 °FSunny.12 mph56%30.27 "Hg10 mi
11:55 AM66 °FSunny.12 mph56%30.27 "Hg10 mi
11:35 AM64 °FSunny.10 mph56%30.27 "Hg10 mi
11:15 AM64 °FSunny.9 mph56%30.27 "Hg10 mi
10:55 AM63 °FSunny.14 mph59%30.27 "Hg10 mi
10:35 AM61 °FSunny.13 mph63%30.28 "Hg10 mi
10:15 AM61 °FSunny.13 mph63%30.28 "Hg10 mi
9:55 AM57 °FSunny.12 mph67%30.27 "Hg10 mi
9:35 AM55 °FSunny.9 mph72%30.27 "Hg10 mi
9:15 AM54 °FSunny.7 mph77%30.27 "Hg10 mi
8:55 AM54 °FSunny.6 mph72%30.26 "Hg10 mi
8:35 AM52 °FSunny.5 mph77%30.26 "Hg10 mi
8:15 AM50 °FSunny.3 mph82%30.26 "Hg10 mi
7:55 AM48 °FSunny.6 mph82%30.26 "Hg9 mi
7:35 AM46 °FSunny.3 mph87%30.25 "Hg7 mi
7:15 AM45 °FClear.3 mph87%30.25 "Hg5 mi
6:55 AM45 °FClear.3 mph81%30.24 "Hg4 mi
6:35 AM43 °FClear.5 mph87%30.24 "Hg3 mi
6:15 AM43 °FClear.5 mph87%30.23 "Hg5 mi
5:55 AM43 °FClear.5 mph87%30.22 "Hg4 mi
5:35 AM43 °FClear.5 mph87%30.21 "Hg5 mi
5:15 AM43 °FClear.No wind87%30.21 "Hg5 mi
4:55 AM45 °FClear.5 mph81%30.21 "Hg7 mi
4:35 AM43 °FClear.5 mph87%30.20 "Hg7 mi
4:15 AM45 °FClear.No wind81%30.19 "Hg9 mi
Weather by CustomWeather, © 2015

See weather overviewHow to use our weather pages